Date,TemperatureHighF,TemperatureAvgF,TemperatureLowF,DewpointHighF,DewpointAvgF,DewpointLowF,HumidityHigh,HumidityAvg,HumidityLow,PressureMaxIn,PressureMinIn,WindSpeedMaxMPH,WindSpeedAvgMPH,GustSpeedMaxMPH,PrecipitationSumIn
2013-1-1,53.8,47.5,42.1,42.6,37.3,32.0,93,69,49,30.27,30.19,11,2,16,0.00
2013-1-2,55.9,47.9,39.9,41.7,36.6,32.4,86,66,44,30.23,30.12,10,1,10,0.00
2013-1-3,53.2,46.7,40.6,42.4,39.5,36.1,89,76,63,30.26,30.16,10,2,12,0.00
2013-1-4,55.4,48.7,44.8,41.0,39.6,37.8,82,71,56,30.28,30.17,10,2,11,0.00
2013-1-5,53.6,47.7,41.2,48.4,44.5,38.1,96,89,76,30.25,30.05,10,0,13,0.32
2013-1-6,53.1,47.5,42.4,47.7,43.7,41.4,97,87,70,30.19,30.04,12,2,13,0.04
2013-1-7,57.2,48.0,41.5,48.7,45.0,40.5,98,90,70,30.26,30.14,5,0,8,0.00
2013-1-8,57.4,49.6,44.8,48.7,45.6,43.3,96,87,69,30.24,30.12,7,1,7,0.00
2013-1-9,54.0,49.3,45.5,50.5,44.1,36.1,95,82,67,30.15,29.99,17,2,18,0.00
2013-1-10,53.2,46.5,40.6,37.4,34.9,30.6,81,65,48,30.19,30.07,12,2,12,0.00
2013-1-11,52.2,46.3,40.5,42.3,36.6,29.5,85,69,52,30.25,30.12,15,3,15,0.00
2013-1-12,51.1,43.6,36.7,38.7,33.2,23.0,94,69,36,30.25,30.14,9,1,9,0.00
2013-1-13,50.7,41.9,34.0,35.6,29.3,18.1,84,63,34,30.27,30.17,15,1,15,0.00
2013-1-14,52.0,44.5,38.8,35.4,23.9,16.9,83,46,28,30.40,30.22,13,2,15,0.00
2013-1-15,55.2,44.2,36.7,38.1,34.4,28.6,90,70,38,30.48,30.38,9,1,9,0.00
2013-1-16,56.3,46.8,40.6,41.4,37.4,34.9,84,70,53,30.43,30.24,7,1,9,0.00
2013-1-17,61.0,50.8,41.9,42.1,39.2,35.6,85,66,46,30.25,30.14,9,2,10,0.00
2013-1-18,62.8,53.1,44.4,41.2,38.1,32.9,75,58,37,30.22,30.12,11,1,11,0.00
2013-1-19,62.1,50.9,42.1,42.3,37.6,33.8,80,62,37,30.24,30.14,9,1,10,0.00
2013-1-20,63.1,50.8,41.9,39.7,36.0,31.3,79,59,34,30.22,30.12,7,1,8,0.00
2013-1-21,63.0,52.4,43.3,43.7,39.4,35.2,75,62,41,30.17,30.06,13,2,13,0.00
2013-1-22,58.3,52.8,47.8,43.9,42.0,39.7,76,67,54,30.10,29.99,12,1,12,0.00
2013-1-23,53.6,51.4,49.6,48.9,46.1,43.5,93,82,72,30.08,29.94,6,1,9,0.15
2013-1-24,58.1,53.0,49.8,51.8,49.7,47.7,93,89,78,30.18,30.06,7,0,8,0.00
2013-1-25,64.4,56.1,51.6,54.1,51.6,49.5,95,85,69,30.18,30.03,7,1,9,0.00
2013-1-26,55.6,51.7,48.0,50.4,45.7,41.2,96,80,64,30.08,29.99,18,4,22,0.00
2013-1-27,56.3,49.2,42.4,42.6,39.3,36.0,81,69,52,30.17,30.06,13,2,15,0.00
2013-1-28,58.8,49.8,42.4,44.6,41.3,36.5,85,73,51,30.29,30.15,12,2,14,0.00
2013-1-29,57.7,49.1,43.2,47.1,43.0,39.6,93,80,57,30.35,30.26,10,1,14,0.00
2013-1-30,62.2,50.1,43.0,50.5,45.0,41.5,96,84,58,30.33,30.25,7,1,9,0.00
2013-1-31,63.3,52.2,44.2,48.7,45.6,41.9,94,79,55,30.28,30.16,8,1,9,0.00